CW8553 Weather Reports


Display with metric or nautical units.
time (UTC)temp
F
wind
direction
speed
MPH
gust
MPH
rain 1hr
in
rain 24hr
in
rain mn
in
humidity
%
barometer
mb
20260831160043 60 18 1.0 6.0 0.00 0.00 0.00 86 1013.7
20260831154611 60 12 0.0 5.0 0.00 0.00 0.00 89 1013.7
20260831153048 58 5 0.0 3.0 0.00 0.00 0.00 91 1013.9
20260831151546 57 11 0.0 2.0 0.00 0.00 0.00 92 1014.0
20260831150043 56 0 0.0 2.0 0.00 0.00 0.00 93 1013.9
20260831144541 56 0 0.0 1.0 0.00 0.00 0.00 93 1013.8
20260831143045 55 0 0.0 2.0 0.00 0.00 0.00 94 1013.8
20260831141547 54 0 0.0 0.0 0.00 0.00 0.00 93 1013.8
20260831140043 54 0 0.0 0.0 0.00 0.00 0.00 92 1013.9
20260831134550 54 0 0.0 0.0 0.00 0.00 0.00 92 1013.8
20260831133047 54 0 0.0 0.0 0.00 0.00 0.00 92 1013.8
20260831131546 55 0 0.0 2.0 0.00 0.00 0.00 92 1013.8
20260831130042 55 0 0.0 1.0 0.00 0.00 0.00 91 1013.8
20260831124540 55 0 0.0 1.0 0.00 0.00 0.00 91 1013.9
20260831123047 55 0 0.0 1.0 0.00 0.00 0.00 91 1013.9
20260831121549 55 0 0.0 0.0 0.00 0.00 0.00 91 1014.0
20260831120045 55 0 0.0 0.0 0.00 0.00 0.00 89 1014.1
20260831114549 56 0 0.0 0.0 0.00 0.00 0.00 88 1014.3
20260831113052 57 0 0.0 1.0 0.00 0.00 0.00 88 1014.4
20260831111543 57 0 0.0 2.0 0.00 0.00 0.00 88 1014.6
20260831110041 57 5 0.0 1.0 0.00 0.00 0.00 87 1014.7
20260831104601 57 0 0.0 2.0 0.00 0.00 0.00 86 1014.8
20260831103045 57 0 0.0 2.0 0.00 0.00 0.00 85 1014.8
20260831101546 57 0 0.0 1.0 0.00 0.00 0.00 84 1015.0
20260831100043 58 0 0.0 2.0 0.00 0.00 0.00 83 1015.1
20260831094547 58 0 0.0 2.0 0.00 0.00 0.00 82 1015.1
20260831093052 58 0 1.0 2.0 0.00 0.00 0.00 82 1015.4
20260831091543 58 0 0.0 1.0 0.00 0.00 0.00 82 1015.7
20260831090052 58 0 0.0 3.0 0.00 0.00 0.00 82 1015.6
20260831084557 58 0 0.0 1.0 0.00 0.00 0.00 82 1015.8
20260831083049 58 0 0.0 1.0 0.00 0.00 0.00 81 1015.8
20260831081543 58 0 0.0 1.0 0.00 0.00 0.00 81 1015.9
20260831080042 58 0 0.0 1.0 0.00 0.00 0.00 81 1016.0
20260831074548 58 0 0.0 0.0 0.00 0.00 0.00 81 1016.1
20260831073045 59 0 0.0 1.0 0.00 0.00 0.00 80 1016.2
20260831071543 59 0 0.0 3.0 0.00 0.00 0.00 80 1016.3
20260831070056 59 0 0.0 1.0 0.00 0.00 0.00 79 1016.5
20260831064546 59 0 0.0 1.0 0.00 0.00 0.00 79 1016.5
20260831063051 60 0 0.0 1.0 0.00 0.00 0.00 77 1016.8
20260831061547 60 0 0.0 1.0 0.00 0.00 0.00 76 1017.0
20260831060051 61 0 0.0 1.0 0.00 0.00 0.00 75 1016.9
20260831054546 61 0 0.0 1.0 0.00 0.00 0.00 74 1017.1
20260831053108 61 0 0.0 2.0 0.00 0.00 0.00 73 1017.3
20260831051548 62 0 0.0 1.0 0.00 0.00 0.00 71 1017.4
20260831050048 62 0 0.0 1.0 0.00 0.00 0.00 70 1017.5
20260831044543 62 19 0.0 2.0 0.00 0.00 0.00 70 1017.6
20260831043048 62 44 0.0 3.0 0.00 0.00 0.00 69 1017.6
20260831041545 62 0 0.0 1.0 0.00 0.00 0.00 68 1017.6
20260831040047 63 0 0.0 1.0 0.00 0.00 0.00 67 1017.6
20260831034551 63 0 0.0 1.0 0.00 0.00 0.00 67 1017.6
20260831033059 63 0 0.0 1.0 0.00 0.00 0.00 66 1017.6
20260831031546 64 0 0.0 1.0 0.00 0.00 0.00 65 1017.5
20260831030043 64 0 0.0 1.0 0.00 0.00 0.00 65 1017.5
20260831024547 65 0 0.0 0.0 0.00 0.00 0.00 64 1017.6
20260831023050 65 0 0.0 1.0 0.00 0.00 0.00 63 1017.6
20260831021544 66 0 0.0 0.0 0.00 0.00 0.00 61 1017.7
20260831020106 67 0 0.0 1.0 0.00 0.00 0.00 59 1017.8
20260831014547 67 0 0.0 2.0 0.00 0.00 0.00 58 1017.8
20260831013045 68 0 0.0 1.0 0.00 0.00 0.00 56 1017.9
20260831011545 68 0 0.0 3.0 0.00 0.00 0.00 57 1018.0
20260831010049 69 0 0.0 2.0 0.00 0.00 0.00 53 1018.1
20260831004551 70 0 0.0 5.0 0.00 0.00 0.00 54 1018.1
20260831003045 70 0 0.0 4.0 0.00 0.00 0.00 52 1018.3
20260831001548 70 0 0.0 5.0 0.00 0.00 0.00 52 1018.4
20260831000047 70 246 0.0 4.0 0.00 0.00 0.00 53 1018.6
20260830234543 71 0 0.0 2.0 0.00 0.00 0.00 49 1018.7
20260830233047 71 273 0.0 6.0 0.00 0.00 0.00 52 1018.8
20260830231547 71 0 0.0 5.0 0.00 0.00 0.00 54 1018.8
20260830230043 70 275 0.0 2.0 0.00 0.00 0.00 56 1018.9
20260830224548 70 0 0.0 2.0 0.00 0.00 0.00 56 1018.9
20260830223045 70 246 0.0 8.0 0.00 0.00 0.00 58 1019.2
20260830221548 70 0 0.0 6.0 0.00 0.00 0.00 56 1019.4
20260830220052 71 205 0.0 5.0 0.00 0.00 0.00 57 1019.4
20260830214547 69 217 0.0 4.0 0.00 0.00 0.00 59 1019.6
20260830213041 70 0 0.0 4.0 0.00 0.00 0.00 60 1019.8
20260830211542 69 252 0.0 4.0 0.00 0.00 0.00 59 1019.9
20260830210048 67 0 1.0 7.0 0.00 0.00 0.00 65 1020.0
20260830204545 67 254 1.0 8.0 0.00 0.00 0.00 65 1020.1
20260830203043 67 239 1.0 7.0 0.00 0.00 0.00 65 1020.2
20260830201550 66 221 1.0 5.0 0.00 0.00 0.00 66 1020.4
20260830200048 67 263 0.0 5.0 0.00 0.00 0.00 66 1020.4
20260830194545 65 0 1.0 5.0 0.00 0.00 0.00 68 1020.4
20260830193041 65 0 0.0 4.0 0.00 0.00 0.00 68 1020.5
20260830191555 65 231 1.0 5.0 0.00 0.00 0.00 66 1020.5
20260830190100 65 234 1.0 5.0 0.00 0.00 0.00 69 1020.5
20260830184543 65 0 1.0 4.0 0.00 0.00 0.00 70 1020.6
20260830183044 63 215 1.0 3.0 0.00 0.00 0.00 72 1020.5
20260830181547 63 225 0.0 4.0 0.00 0.00 0.00 73 1020.6
20260830180045 63 247 0.0 3.0 0.00 0.00 0.00 73 1020.6
20260830174541 61 0 0.0 4.0 0.00 0.00 0.00 77 1020.6
20260830173055 60 0 0.0 3.0 0.00 0.00 0.00 79 1020.6
20260830171553 60 0 1.0 3.0 0.00 0.00 0.00 78 1020.5
20260830170045 60 240 1.0 4.0 0.00 0.00 0.00 78 1020.5
20260830164547 59 0 0.0 2.0 0.00 0.00 0.00 79 1020.4
20260830163045 59 327 0.0 4.0 0.00 0.00 0.00 81 1020.4
20260830161555 58 0 0.0 3.0 0.00 0.00 0.00 81 1020.4